shoulder
new_line
new_line
first
second
third
Al di la della Luna; Beyond the Moon; Astrophotography; Astrofotografia; Danilo Pivato
 
 
         
         
2020

Orbital Elements

Epoch 2020 Apr. 21.0 TT = JDT 2458960.5
T 2020 May 4.95305 TT
q   1.6151085            (2000.0)                         P                      Q
z  +0.0002325    Peri.      92.99445       -0.50995854      -0.40634798
+/-0.0000002      Node    64.37794        -0.16278106     -0.81987835
e   0.9996245     Incl.       57.23061      +0.84465651     -0.40333708                
 
         
         
       
The BigBang Observatory - SetUp used
       
         
2020.01.26
2020.02.19
2020.02.19
2020.02.22
2020.02.24
         
2020.02.24
2020.02.28
2020.02.28
2020.05.17
2020.05.17 20h53m UT
         
2020.05.22
2020.05.31
2020.07.24
2020.07.25
2020.08.25
         
         
         

 

       
 
Since: 01/01/2004
 
           
Since: 01/11/2010